Date String (YYYY-MM-DD hh:mm:ss) UTC,Instrument flags,Ambient pressure (hPa),Sample flow (lpm),Bypass flow (lpm),Sample temperature (°C),Ambient temperature (°C),ASC tube jacket temperature (°C),LED temperature (°C),Box temperature (°C),Sample RH (%),Span deviation,Mass concentration (μg/m³),Mass concentration (μg/m³),Mass concentration (μg/m³)
DateTimeUTC,F1_M11,P_M11,Q1_M11,Q2_M11,T1_M11,T2_M11,T3_M11,T4_M11,T5_M11,U1_M11,ZSPAN_M11,X2_M11,X0_M11,X1_M11
2022-07-07 17:00:00,,0828.9,4.99,0.00,31.6,27.7,00.0,39.6,32.2,34.2,0000.0,0006.54,0011.82,0005.97
2022-07-07 17:01:00,,0828.9,5.00,0.00,31.7,27.9,00.0,39.6,32.2,34.6,0000.0,0006.48,0011.49,0005.93
2022-07-07 17:02:00,,0828.9,5.01,0.00,31.8,28.1,00.0,39.6,32.2,34.7,0000.0,0006.50,0011.66,0005.90
2022-07-07 17:03:00,,0828.9,5.00,0.00,31.8,28.3,00.0,39.6,32.2,34.6,0000.0,0006.52,0012.22,0005.89
2022-07-07 17:04:00,,0828.9,5.00,0.00,31.9,28.4,00.0,39.7,32.3,34.7,0000.0,0006.52,0012.19,0005.90
2022-07-07 17:05:00,,0828.9,5.00,0.00,31.9,28.4,00.0,39.7,32.4,34.4,0000.0,0006.54,0012.04,0005.91
2022-07-07 17:06:00,,0828.8,5.01,0.00,32.0,27.8,00.0,39.7,32.3,34.5,0000.0,0006.58,0012.06,0005.93
2022-07-07 17:07:00,,0828.8,5.00,0.00,31.9,27.4,00.0,39.7,32.2,34.2,0000.0,0006.61,0012.32,0005.95
2022-07-07 17:08:00,,0828.8,5.00,0.00,31.9,27.4,00.0,39.7,32.1,34.8,0000.0,0006.66,0011.96,0005.97
2022-07-07 17:09:00,,0829.0,4.99,0.00,31.7,27.5,00.0,39.7,32.0,35.2,0000.0,0006.72,0011.84,0006.00
2022-07-07 17:10:00,,0829.1,5.01,0.00,31.8,27.6,00.0,39.7,32.1,34.9,0000.0,0006.78,0012.05,0006.03
2022-07-07 17:11:00,,0828.8,5.00,0.00,31.9,27.8,00.0,39.7,32.3,34.4,0000.0,0006.84,0012.19,0006.06
2022-07-07 17:12:00,,0829.0,5.02,0.00,32.0,28.0,00.0,39.7,32.3,34.8,0000.0,0006.93,0012.40,0006.10
2022-07-07 17:13:00,,0828.8,4.99,0.00,32.1,28.2,00.0,39.8,32.3,34.5,0000.0,0006.97,0012.38,0006.14
2022-07-07 17:14:00,,0829.1,5.00,0.00,32.1,28.3,00.0,39.8,32.4,34.9,0000.0,0006.99,0011.84,0006.17
2022-07-07 17:15:00,,0829.0,4.99,0.00,32.2,28.4,00.0,39.9,32.4,35.2,0000.0,0007.01,0011.77,0006.20
2022-07-07 17:16:00,,0829.2,5.01,0.00,32.4,27.9,00.0,39.8,32.5,35.3,0000.0,0007.04,0011.97,0006.23
2022-07-07 17:17:00,,0829.3,4.99,0.00,32.6,27.5,00.0,39.8,32.5,34.5,0000.0,0007.05,0013.39,0006.24
2022-07-07 17:18:00,,0829.1,5.01,0.00,32.7,27.4,00.0,39.9,32.5,35.3,0000.0,0007.05,0013.38,0006.25
2022-07-07 17:19:00,,0829.1,5.00,0.00,32.7,27.5,00.0,39.9,32.4,34.5,0000.0,0007.06,0013.21,0006.26
2022-07-07 17:20:00,,0829.3,4.99,0.00,32.8,27.7,00.0,40.0,32.4,33.8,0000.0,0007.01,0013.10,0006.26
2022-07-07 17:21:00,,0829.4,5.00,0.00,32.8,27.8,00.0,40.0,32.4,34.2,0000.0,0007.01,0013.54,0006.27
2022-07-07 17:22:00,,0829.3,4.99,0.00,32.7,28.0,00.0,40.1,32.4,34.3,0000.0,0007.02,0013.61,0006.28
2022-07-07 17:23:00,,0829.0,5.00,0.00,32.7,28.2,00.0,40.2,32.4,34.4,0000.0,0006.98,0013.39,0006.29
2022-07-07 17:24:00,,0828.9,5.00,0.00,32.6,28.3,00.0,40.2,32.4,34.4,0000.0,0006.95,0013.31,0006.29
2022-07-07 17:25:00,,0828.8,5.00,0.00,32.6,27.9,00.0,40.2,32.4,34.2,0000.0,0006.96,0013.25,0006.30
2022-07-07 17:26:00,,0828.8,5.00,0.00,32.6,27.5,00.0,40.2,32.3,34.8,0000.0,0006.99,0013.32,0006.32
2022-07-07 17:27:00,,0828.9,5.01,0.00,32.5,27.4,00.0,40.2,32.3,34.8,0000.0,0007.00,0013.04,0006.35
2022-07-07 17:28:00,,0828.9,4.99,0.00,32.5,27.4,00.0,40.2,32.3,34.0,0000.0,0007.04,0011.69,0006.41
2022-07-07 17:29:00,,0828.9,5.00,0.00,32.4,27.6,00.0,40.2,32.3,34.3,0000.0,0007.08,0011.48,0006.47
2022-07-07 17:30:00,,0828.9,5.00,0.00,32.3,27.8,00.0,40.2,32.3,34.2,0000.0,0007.11,0011.46,0006.52
2022-07-07 17:31:00,,0828.9,5.00,0.00,32.2,28.0,00.0,40.2,32.3,34.5,0000.0,0007.21,0011.64,0006.58
2022-07-07 17:32:00,,0828.9,5.00,0.00,32.2,28.1,00.0,40.2,32.3,34.6,0000.0,0007.23,0011.09,0006.63
2022-07-07 17:33:00,,0828.9,4.99,0.00,32.1,28.3,00.0,40.2,32.3,34.3,0000.0,0007.26,0011.37,0006.68
2022-07-07 17:34:00,,0829.0,5.00,0.00,32.1,28.4,00.0,40.2,32.3,34.5,0000.0,0007.31,0011.83,0006.74
2022-07-07 17:35:00,,0829.0,5.01,0.00,32.0,28.0,00.0,40.1,32.3,34.3,0000.0,0007.39,0011.98,0006.78
2022-07-07 17:36:00,,0828.9,5.01,0.00,32.0,27.5,00.0,40.0,32.2,34.7,0000.0,0007.43,0012.35,0006.80
2022-07-07 17:37:00,,0828.9,5.00,0.00,31.9,27.3,00.0,40.0,32.2,35.3,0000.0,0007.47,0012.57,0006.83
2022-07-07 17:38:00,,0828.8,5.01,0.00,31.9,27.4,00.0,40.0,32.2,35.8,0000.0,0007.48,0012.65,0006.83
2022-07-07 17:39:00,,0828.9,5.00,0.00,32.1,27.5,00.0,40.0,32.3,35.4,0000.0,0007.48,0012.61,0006.83
2022-07-07 17:40:00,,0828.9,4.99,0.00,32.4,27.7,00.0,39.9,32.5,34.9,0000.0,0007.43,0012.61,0006.81
2022-07-07 17:41:00,,0828.9,5.00,0.00,32.6,27.9,00.0,39.9,32.5,34.3,0000.0,0007.40,0012.57,0006.78
2022-07-07 17:42:00,,0828.9,5.00,0.00,32.7,28.1,00.0,40.0,32.5,33.4,0000.0,0007.35,0012.47,0006.75
2022-07-07 17:43:00,,0828.9,5.00,0.00,32.7,28.2,00.0,40.0,32.5,33.3,0000.0,0007.32,0012.44,0006.74
2022-07-07 17:44:00,,0828.8,5.01,0.00,32.7,28.2,00.0,40.1,32.5,33.1,0000.0,0007.32,0012.65,0006.72
2022-07-07 17:45:00,,0828.8,5.00,0.00,32.7,27.6,00.0,40.1,32.4,33.4,0000.0,0007.30,0013.10,0006.68
2022-07-07 17:46:00,,0828.9,5.00,0.00,32.6,27.2,00.0,40.1,32.3,32.5,0000.0,0007.26,0013.24,0006.65
2022-07-07 17:47:00,,0829.3,5.00,0.00,32.5,27.2,00.0,40.1,32.2,31.9,0000.0,0007.16,0012.88,0006.58
2022-07-07 17:48:00,,0829.3,5.01,0.00,32.3,27.3,00.0,40.1,32.1,32.0,0000.0,0007.07,0012.47,0006.50
2022-07-07 17:49:00,,0829.3,5.00,0.00,32.2,27.4,00.0,40.1,32.1,32.4,0000.0,0006.97,0012.28,0006.41
2022-07-07 17:50:00,,0829.2,5.00,0.00,32.1,27.6,00.0,40.1,32.1,32.4,0000.0,0006.94,0012.28,0006.35
2022-07-07 17:51:00,,0829.3,5.00,0.00,32.0,27.8,00.0,40.1,32.1,32.3,0000.0,0006.94,0012.34,0006.29
2022-07-07 17:52:00,,0829.3,4.99,0.00,31.9,28.0,00.0,40.1,32.2,32.3,0000.0,0006.91,0012.65,0006.25
2022-07-07 17:53:00,,0829.4,5.00,0.00,31.9,28.2,00.0,40.1,32.2,32.9,0000.0,0006.93,0013.86,0006.21
2022-07-07 17:54:00,,0829.3,4.99,0.00,31.8,28.3,00.0,40.1,32.2,33.5,0000.0,0006.92,0014.27,0006.16
2022-07-07 17:55:00,,0829.2,5.00,0.00,31.8,28.4,00.0,40.0,32.3,33.9,0000.0,0006.91,0014.61,0006.13
2022-07-07 17:56:00,,0829.2,5.00,0.00,31.7,27.9,00.0,40.0,32.2,34.4,0000.0,0006.92,0013.75,0006.11
2022-07-07 17:57:00,,0829.0,5.01,0.00,31.7,27.4,00.0,39.9,32.1,34.4,0000.0,0006.89,0013.52,0006.10
2022-07-07 17:58:00,,0829.2,5.00,0.00,31.6,27.3,00.0,39.9,32.0,34.9,0000.0,0006.95,0013.96,0006.12
2022-07-07 17:59:00,,0828.9,4.99,0.00,31.4,27.3,00.0,39.8,32.0,35.1,0000.0,0007.00,0014.01,0006.14
